Time,TemperatureF,DewpointF,PressureIn,WindDirection,WindDirectionDegrees,WindSpeedMPH,WindSpeedGustMPH,Humidity,HourlyPrecipIn,Conditions,Clouds,dailyrainin,SoftwareType,DateUTC
2013-02-26 00:01:00,47.0,44.0,29.47,ESE,102,21.0,32.0,89,-99.99,,,-99.99,,2013-02-26 06:01:00,
2013-02-26 00:11:00,47.0,44.0,29.47,ESE,102,21.0,32.0,89,-99.99,,,-99.99,,2013-02-26 06:11:00,
2013-02-26 00:21:00,47.0,43.0,29.47,SE,130,26.0,35.0,87,-99.99,,,-99.99,,2013-02-26 06:21:00,
2013-02-26 00:31:00,47.0,44.0,29.47,East,82,16.0,36.0,88,-99.99,,,-99.99,,2013-02-26 06:31:00,
2013-02-26 00:41:00,47.0,44.0,29.47,East,82,16.0,36.0,88,-99.99,,,-99.99,,2013-02-26 06:41:00,
2013-02-26 00:52:00,47.0,43.0,29.47,SE,124,16.0,32.0,86,-99.99,,,-99.99,,2013-02-26 06:52:00,
2013-02-26 01:01:00,47.0,44.0,29.47,SSE,155,13.0,29.0,89,0.01,,,-99.99,,2013-02-26 07:01:00,
2013-02-26 01:11:00,47.0,44.0,29.47,SSE,155,13.0,29.0,89,0.01,,,-99.99,,2013-02-26 07:11:00,
2013-02-26 01:22:00,47.0,45.0,29.44,ESE,117,18.0,25.0,91,0.04,,,-99.99,,2013-02-26 07:22:00,
2013-02-26 01:31:00,47.0,45.0,29.42,SE,131,23.0,32.0,92,0.04,,,-99.99,,2013-02-26 07:31:00,
2013-02-26 01:41:00,47.0,45.0,29.42,SE,131,23.0,32.0,92,0.04,,,-99.99,,2013-02-26 07:41:00,
2013-02-26 01:52:00,47.0,45.0,29.43,SE,141,19.0,32.0,92,0.04,,,-99.99,,2013-02-26 07:52:00,
2013-02-26 02:01:00,47.0,45.0,29.45,South,172,19.0,31.0,91,0.03,,,-99.99,,2013-02-26 08:01:00,
2013-02-26 02:11:00,47.0,45.0,29.44,SE,144,18.0,35.0,92,0.02,,,-99.99,,2013-02-26 08:11:00,
2013-02-26 02:21:00,47.0,45.0,29.44,SE,144,18.0,35.0,92,0.02,,,-99.99,,2013-02-26 08:21:00,
2013-02-26 02:31:00,47.0,45.0,29.44,SSE,152,21.0,35.0,92,0.03,,,-99.99,,2013-02-26 08:31:00,
2013-02-26 02:41:00,47.0,45.0,29.44,SSE,152,21.0,35.0,92,0.03,,,-99.99,,2013-02-26 08:41:00,
2013-02-26 02:52:00,47.0,45.0,29.43,SE,128,21.0,44.0,92,0.03,,,-99.99,,2013-02-26 08:52:00,
2013-02-26 03:01:00,46.0,44.0,29.41,SE,143,28.0,36.0,92,0.04,,,-99.99,,2013-02-26 09:01:00,
2013-02-26 03:11:00,46.0,44.0,29.41,SE,143,28.0,36.0,92,0.04,,,-99.99,,2013-02-26 09:11:00,
2013-02-26 03:21:00,46.0,44.0,29.41,SE,141,23.0,34.0,91,0.02,,,-99.99,,2013-02-26 09:21:00,
2013-02-26 03:31:00,46.0,43.0,29.42,SE,140,16.0,30.0,90,0.01,,,-99.99,,2013-02-26 09:31:00,
2013-02-26 03:43:00,46.0,43.0,29.42,SE,140,16.0,30.0,90,0.01,,,-99.99,,2013-02-26 09:43:00,
2013-02-26 03:52:00,46.0,43.0,29.43,SSE,150,15.0,24.0,90,0.01,,,-99.99,,2013-02-26 09:52:00,
2013-02-26 04:01:00,46.0,43.0,29.44,SE,144,14.0,22.0,89,0.00,,,-99.99,,2013-02-26 10:01:00,
2013-02-26 04:11:00,46.0,43.0,29.44,SE,144,14.0,22.0,89,0.00,,,-99.99,,2013-02-26 10:11:00,
2013-02-26 04:21:00,47.0,43.0,29.44,SSE,160,14.0,27.0,87,0.00,,,-99.99,,2013-02-26 10:21:00,
2013-02-26 04:31:00,46.0,43.0,29.43,SSE,155,14.0,24.0,88,0.00,,,-99.99,,2013-02-26 10:31:00,
2013-02-26 04:41:00,46.0,43.0,29.43,SSE,155,14.0,24.0,88,0.00,,,-99.99,,2013-02-26 10:41:00,
2013-02-26 04:52:00,46.0,42.0,29.41,SE,143,17.0,26.0,87,0.00,,,-99.99,,2013-02-26 10:52:00,
2013-02-26 05:01:00,46.0,42.0,29.40,SSE,154,17.0,30.0,86,0.00,,,-99.99,,2013-02-26 11:01:00,
2013-02-26 05:11:00,46.0,42.0,29.40,SSE,154,17.0,30.0,86,0.00,,,-99.99,,2013-02-26 11:11:00,
2013-02-26 05:21:00,46.0,42.0,29.40,SSE,147,17.0,32.0,86,0.00,,,-99.99,,2013-02-26 11:21:00,
2013-02-26 05:32:00,46.0,42.0,29.41,SE,138,18.0,28.0,86,0.00,,,-99.99,,2013-02-26 11:32:00,
2013-02-26 05:42:00,46.0,42.0,29.40,South,169,15.0,26.0,87,0.00,,,-99.99,,2013-02-26 11:42:00,
2013-02-26 05:52:00,46.0,42.0,29.40,South,169,15.0,26.0,87,0.00,,,-99.99,,2013-02-26 11:52:00,
2013-02-26 06:01:00,46.0,42.0,29.40,SSW,196,14.0,28.0,87,0.00,,,-99.99,,2013-02-26 12:01:00,
2013-02-26 06:11:00,46.0,42.0,29.40,SSW,196,14.0,28.0,87,0.00,,,-99.99,,2013-02-26 12:11:00,
2013-02-26 06:22:00,46.0,42.0,29.40,SSE,157,6.0,27.0,87,0.00,,,-99.99,,2013-02-26 12:22:00,
2013-02-26 06:32:00,46.0,42.0,29.40,SSE,162,12.0,20.0,87,0.00,,,-99.99,,2013-02-26 12:32:00,
2013-02-26 06:42:00,46.0,42.0,29.40,SSE,162,12.0,20.0,87,0.00,,,-99.99,,2013-02-26 12:42:00,
2013-02-26 06:53:00,46.0,42.0,29.40,South,186,13.0,21.0,87,0.00,,,-99.99,,2013-02-26 12:53:00,
2013-02-26 07:01:00,45.0,41.0,29.39,SE,138,14.0,24.0,87,0.00,,,-99.99,,2013-02-26 13:01:00,
2013-02-26 07:11:00,45.0,42.0,29.39,SE,144,11.0,22.0,88,0.00,,,-99.99,,2013-02-26 13:11:00,
2013-02-26 07:21:00,45.0,42.0,29.39,SE,144,11.0,22.0,88,0.00,,,-99.99,,2013-02-26 13:21:00,
2013-02-26 07:32:00,46.0,43.0,29.43,WSW,237,11.0,17.0,89,0.00,,,-99.99,,2013-02-26 13:32:00,
2013-02-26 07:42:00,46.0,43.0,29.43,WSW,237,11.0,17.0,89,0.00,,,-99.99,,2013-02-26 13:42:00,
2013-02-26 07:52:00,45.0,43.0,29.44,SW,219,13.0,18.0,91,0.02,,,-99.99,,2013-02-26 13:52:00,
2013-02-26 08:01:00,45.0,43.0,29.44,South,179,7.0,13.0,91,0.02,,,-99.99,,2013-02-26 14:01:00,
2013-02-26 08:11:00,45.0,43.0,29.44,South,179,7.0,13.0,91,0.02,,,-99.99,,2013-02-26 14:11:00,
2013-02-26 08:21:00,46.0,44.0,29.44,SSW,192,3.0,8.0,92,0.02,,,-99.99,,2013-02-26 14:21:00,
2013-02-26 08:31:00,46.0,44.0,29.44,SSE,155,5.0,11.0,93,0.02,,,-99.99,,2013-02-26 14:31:00,
2013-02-26 08:42:00,46.0,44.0,29.44,SSE,155,5.0,11.0,93,0.02,,,-99.99,,2013-02-26 14:42:00,
2013-02-26 08:52:00,46.0,44.0,29.45,South,169,7.0,14.0,93,0.01,,,-99.99,,2013-02-26 14:52:00,
2013-02-26 09:02:00,46.0,44.0,29.44,SSW,198,8.0,13.0,93,0.01,,,-99.99,,2013-02-26 15:02:00,
2013-02-26 09:11:00,46.0,44.0,29.44,SSW,198,8.0,13.0,93,0.01,,,-99.99,,2013-02-26 15:11:00,
2013-02-26 09:21:00,46.0,44.0,29.44,South,179,5.0,12.0,94,0.01,,,-99.99,,2013-02-26 15:21:00,
2013-02-26 09:32:00,46.0,44.0,29.44,SSW,196,3.0,9.0,94,0.01,,,-99.99,,2013-02-26 15:32:00,
2013-02-26 09:42:00,46.0,44.0,29.44,SSW,196,3.0,9.0,94,0.01,,,-99.99,,2013-02-26 15:42:00,
2013-02-26 09:52:00,46.0,45.0,29.44,SW,224,4.0,11.0,95,0.01,,,-99.99,,2013-02-26 15:52:00,
2013-02-26 10:01:00,44.0,42.0,29.46,WNW,285,8.0,19.0,93,0.03,,,-99.99,,2013-02-26 16:01:00,
2013-02-26 10:11:00,44.0,42.0,29.46,WNW,285,8.0,19.0,93,0.03,,,-99.99,,2013-02-26 16:11:00,
2013-02-26 10:22:00,43.0,41.0,29.47,NW,305,6.0,14.0,92,0.03,,,-99.99,,2013-02-26 16:22:00,
2013-02-26 10:32:00,43.0,41.0,29.48,West,278,3.0,7.0,93,0.03,,,-99.99,,2013-02-26 16:32:00,
2013-02-26 10:42:00,43.0,41.0,29.48,West,278,3.0,7.0,93,0.03,,,-99.99,,2013-02-26 16:42:00,
2013-02-26 10:52:00,44.0,42.0,29.48,WSW,240,6.0,13.0,93,0.02,,,-99.99,,2013-02-26 16:52:00,
2013-02-26 11:01:00,45.0,43.0,29.49,South,181,12.0,17.0,92,0.00,,,-99.99,,2013-02-26 17:01:00,
2013-02-26 11:11:00,46.0,42.0,29.49,WSW,256,11.0,22.0,86,0.00,,,-99.99,,2013-02-26 17:11:00,
2013-02-26 11:21:00,46.0,42.0,29.49,WSW,256,11.0,22.0,86,0.00,,,-99.99,,2013-02-26 17:21:00,
2013-02-26 11:32:00,47.0,39.0,29.50,WSW,247,17.0,26.0,74,0.00,,,-99.99,,2013-02-26 17:32:00,
2013-02-26 11:41:00,47.0,39.0,29.50,WSW,247,17.0,26.0,74,0.00,,,-99.99,,2013-02-26 17:41:00,
2013-02-26 11:52:00,47.0,37.0,29.51,WSW,251,14.0,22.0,69,0.00,,,-99.99,,2013-02-26 17:52:00,
2013-02-26 12:01:00,47.0,37.0,29.52,WSW,246,10.0,25.0,69,0.00,,,-99.99,,2013-02-26 18:01:00,
2013-02-26 12:12:00,47.0,37.0,29.52,WSW,246,10.0,25.0,69,0.00,,,-99.99,,2013-02-26 18:12:00,
2013-02-26 12:21:00,47.0,36.0,29.51,West,267,15.0,25.0,66,0.00,,,-99.99,,2013-02-26 18:21:00,
2013-02-26 12:32:00,47.0,36.0,29.50,WSW,247,12.0,22.0,66,0.00,,,-99.99,,2013-02-26 18:32:00,
2013-02-26 12:42:00,47.0,36.0,29.50,WSW,247,12.0,22.0,66,0.00,,,-99.99,,2013-02-26 18:42:00,
2013-02-26 12:52:00,47.0,36.0,29.50,WSW,241,17.0,25.0,66,0.00,,,-99.99,,2013-02-26 18:52:00,
2013-02-26 13:01:00,47.0,36.0,29.49,WSW,244,19.0,26.0,65,0.00,,,-99.99,,2013-02-26 19:01:00,
2013-02-26 13:11:00,47.0,36.0,29.49,WSW,244,19.0,26.0,65,0.00,,,-99.99,,2013-02-26 19:11:00,
2013-02-26 13:22:00,47.0,35.0,29.49,WSW,258,22.0,32.0,63,0.00,,,-99.99,,2013-02-26 19:22:00,
2013-02-26 13:31:00,48.0,36.0,29.50,WSW,243,17.0,25.0,62,0.00,,,-99.99,,2013-02-26 19:31:00,
2013-02-26 13:41:00,48.0,36.0,29.50,WSW,243,17.0,25.0,62,0.00,,,-99.99,,2013-02-26 19:41:00,
2013-02-26 13:52:00,47.0,35.0,29.51,WSW,251,14.0,22.0,63,0.00,,,-99.99,,2013-02-26 19:52:00,
2013-02-26 14:01:00,47.0,35.0,29.52,WSW,241,13.0,25.0,63,0.00,,,-99.99,,2013-02-26 20:01:00,
2013-02-26 14:11:00,47.0,35.0,29.52,WSW,241,13.0,25.0,63,0.00,,,-99.99,,2013-02-26 20:11:00,
2013-02-26 14:21:00,46.0,35.0,29.52,West,267,13.0,21.0,64,0.00,,,-99.99,,2013-02-26 20:21:00,
2013-02-26 14:31:00,46.0,35.0,29.53,WSW,241,17.0,29.0,66,0.00,,,-99.99,,2013-02-26 20:31:00,
2013-02-26 14:41:00,46.0,35.0,29.53,WSW,241,17.0,29.0,66,0.00,,,-99.99,,2013-02-26 20:41:00,
2013-02-26 14:52:00,45.0,35.0,29.54,WSW,239,11.0,21.0,68,0.00,,,-99.99,,2013-02-26 20:52:00,
2013-02-26 15:01:00,45.0,35.0,29.54,West,263,13.0,25.0,68,0.00,,,-99.99,,2013-02-26 21:01:00,
2013-02-26 15:11:00,45.0,35.0,29.55,WSW,256,8.0,17.0,68,0.00,,,-99.99,,2013-02-26 21:11:00,
2013-02-26 15:21:00,45.0,35.0,29.55,WSW,256,8.0,17.0,68,0.00,,,-99.99,,2013-02-26 21:21:00,
2013-02-26 15:31:00,45.0,34.0,29.55,West,261,17.0,22.0,66,0.00,,,-99.99,,2013-02-26 21:31:00,
2013-02-26 15:41:00,45.0,34.0,29.55,West,261,17.0,22.0,66,0.00,,,-99.99,,2013-02-26 21:41:00,
2013-02-26 15:51:00,45.0,36.0,29.56,WSW,237,14.0,21.0,70,0.00,,,-99.99,,2013-02-26 21:51:00,
2013-02-26 16:01:00,43.0,37.0,29.57,NW,304,11.0,17.0,78,0.01,,,-99.99,,2013-02-26 22:01:00,
2013-02-26 16:11:00,43.0,37.0,29.57,WNW,282,10.0,14.0,79,0.01,,,-99.99,,2013-02-26 22:11:00,
2013-02-26 16:21:00,43.0,37.0,29.57,WNW,282,10.0,14.0,79,0.01,,,-99.99,,2013-02-26 22:21:00,
2013-02-26 16:31:00,43.0,37.0,29.57,WSW,256,7.0,14.0,80,0.01,,,-99.99,,2013-02-26 22:31:00,
2013-02-26 16:41:00,43.0,37.0,29.57,WSW,256,7.0,14.0,80,0.01,,,-99.99,,2013-02-26 22:41:00,
2013-02-26 16:52:00,43.0,37.0,29.58,WSW,247,11.0,19.0,78,0.01,,,-99.99,,2013-02-26 22:52:00,
2013-02-26 17:01:00,44.0,36.0,29.58,WSW,256,16.0,25.0,73,0.00,,,-99.99,,2013-02-26 23:01:00,
2013-02-26 17:11:00,44.0,36.0,29.58,WSW,256,16.0,25.0,73,0.00,,,-99.99,,2013-02-26 23:11:00,
2013-02-26 17:21:00,44.0,36.0,29.59,WSW,248,11.0,20.0,73,0.00,,,-99.99,,2013-02-26 23:21:00,
2013-02-26 17:31:00,43.0,35.0,29.60,West,264,12.0,18.0,74,0.00,,,-99.99,,2013-02-26 23:31:00,
2013-02-26 17:41:00,43.0,35.0,29.60,West,264,12.0,18.0,74,0.00,,,-99.99,,2013-02-26 23:41:00,
2013-02-26 17:52:00,42.0,37.0,29.61,WSW,248,10.0,22.0,81,0.00,,,-99.99,,2013-02-26 23:52:00,
2013-02-26 18:01:00,41.0,36.0,29.61,West,264,7.0,21.0,82,0.00,,,-99.99,,2013-02-27 00:01:00,
2013-02-26 18:11:00,41.0,36.0,29.61,West,264,7.0,21.0,82,0.00,,,-99.99,,2013-02-27 00:11:00,
2013-02-26 18:22:00,41.0,36.0,29.62,WNW,285,8.0,19.0,83,0.00,,,-99.99,,2013-02-27 00:22:00,
2013-02-26 18:31:00,41.0,37.0,29.63,West,264,9.0,17.0,84,0.00,,,-99.99,,2013-02-27 00:31:00,
2013-02-26 18:41:00,41.0,37.0,29.63,West,264,9.0,17.0,84,0.00,,,-99.99,,2013-02-27 00:41:00,
2013-02-26 18:52:00,42.0,37.0,29.64,West,267,11.0,24.0,81,0.00,,,-99.99,,2013-02-27 00:52:00,
2013-02-26 19:01:00,42.0,36.0,29.65,WSW,237,9.0,18.0,79,0.00,,,-99.99,,2013-02-27 01:01:00,
2013-02-26 19:11:00,42.0,36.0,29.65,WSW,237,9.0,18.0,79,0.00,,,-99.99,,2013-02-27 01:11:00,
2013-02-26 19:21:00,42.0,35.0,29.66,WSW,253,9.0,16.0,76,0.00,,,-99.99,,2013-02-27 01:21:00,
2013-02-26 19:31:00,42.0,34.0,29.66,WSW,243,10.0,18.0,73,0.00,,,-99.99,,2013-02-27 01:31:00,
2013-02-26 19:42:00,42.0,34.0,29.66,WSW,243,10.0,18.0,73,0.00,,,-99.99,,2013-02-27 01:42:00,
2013-02-26 19:52:00,42.0,34.0,29.67,West,265,7.0,18.0,72,0.00,,,-99.99,,2013-02-27 01:52:00,
2013-02-26 20:01:00,42.0,33.0,29.67,West,260,8.0,16.0,71,0.00,,,-99.99,,2013-02-27 02:01:00,
2013-02-26 20:14:00,42.0,33.0,29.67,West,260,8.0,16.0,71,0.00,,,-99.99,,2013-02-27 02:14:00,
2013-02-26 20:23:00,42.0,34.0,29.68,WSW,253,7.0,18.0,72,0.00,,,-99.99,,2013-02-27 02:23:00,
2013-02-26 20:32:00,42.0,34.0,29.69,WSW,254,14.0,25.0,72,0.00,,,-99.99,,2013-02-27 02:32:00,
2013-02-26 20:42:00,42.0,34.0,29.69,WSW,254,14.0,25.0,72,0.00,,,-99.99,,2013-02-27 02:42:00,
2013-02-26 20:52:00,42.0,34.0,29.69,West,281,11.0,20.0,73,0.00,,,-99.99,,2013-02-27 02:52:00,
2013-02-26 21:01:00,41.0,34.0,29.70,West,275,11.0,18.0,76,0.00,,,-99.99,,2013-02-27 03:01:00,
2013-02-26 21:11:00,41.0,34.0,29.70,West,260,7.0,16.0,77,0.00,,,-99.99,,2013-02-27 03:11:00,
2013-02-26 21:21:00,41.0,34.0,29.70,West,260,7.0,16.0,77,0.00,,,-99.99,,2013-02-27 03:21:00,
2013-02-26 21:32:00,41.0,34.0,29.71,West,277,14.0,22.0,77,0.00,,,-99.99,,2013-02-27 03:32:00,
2013-02-26 21:41:00,41.0,34.0,29.71,West,277,14.0,22.0,77,0.00,,,-99.99,,2013-02-27 03:41:00,
2013-02-26 21:52:00,39.0,34.0,29.71,WNW,289,7.0,15.0,82,0.00,,,-99.99,,2013-02-27 03:52:00,
2013-02-26 22:01:00,40.0,35.0,29.72,West,278,6.0,14.0,83,0.00,,,-99.99,,2013-02-27 04:01:00,
2013-02-26 22:11:00,40.0,35.0,29.72,West,278,6.0,14.0,83,0.00,,,-99.99,,2013-02-27 04:11:00,
2013-02-26 22:21:00,40.0,35.0,29.72,West,270,8.0,11.0,82,0.00,,,-99.99,,2013-02-27 04:21:00,
2013-02-26 22:32:00,41.0,35.0,29.72,WSW,256,9.0,12.0,79,0.00,,,-99.99,,2013-02-27 04:32:00,
2013-02-26 22:41:00,41.0,35.0,29.72,WSW,256,9.0,12.0,79,0.00,,,-99.99,,2013-02-27 04:41:00,
2013-02-26 22:52:00,41.0,34.0,29.72,WSW,253,10.0,18.0,77,0.00,,,-99.99,,2013-02-27 04:52:00,
2013-02-26 23:01:00,41.0,34.0,29.72,WSW,256,8.0,14.0,76,0.00,,,-99.99,,2013-02-27 05:01:00,
2013-02-26 23:11:00,41.0,34.0,29.72,WSW,256,8.0,14.0,76,0.00,,,-99.99,,2013-02-27 05:11:00,
2013-02-26 23:22:00,41.0,34.0,29.73,WSW,256,11.0,14.0,75,0.00,,,-99.99,,2013-02-27 05:22:00,
2013-02-26 23:32:00,41.0,33.0,29.73,WSW,257,8.0,16.0,73,0.00,,,-99.99,,2013-02-27 05:32:00,
2013-02-26 23:41:00,41.0,33.0,29.73,WSW,257,8.0,16.0,73,0.00,,,-99.99,,2013-02-27 05:41:00,
2013-02-26 23:52:00,41.0,33.0,29.73,WSW,258,8.0,14.0,72,0.00,,,-99.99,,2013-02-27 05:52:00,